GW3844 Weather Reports


time (UTC)temp
F
wind
direction
speed
knots
gust
knots
rain 1hr
in
rain 24hr
in
rain mn
in
humidity
%
barometer
mb
20260506012042 87 96 0.0 0.0 0.00 0.00 0.00 82 1010.8
20260506011540 87 94 0.0 0.0 0.00 0.00 0.00 80 1010.4
20260506011036 87 82 0.9 0.9 0.00 0.00 0.00 83 1010.4
20260506010531 84 102 0.0 0.0 0.00 0.00 0.00 82 1010.3
20260506010027 84 86 0.0 0.0 0.00 0.00 0.00 85 1010.2
20260506005524 84 84 0.9 0.9 0.00 0.00 0.00 86 1010.2
20260506005020 84 92 1.7 2.6 0.00 0.00 0.00 89 1009.9
20260506004517 83 75 0.9 0.9 0.00 0.00 0.00 88 1010.1
20260506004014 83 58 0.9 1.7 0.00 0.00 0.00 89 1009.9
20260506003510 83 73 1.7 1.7 0.00 0.00 0.00 90 1010.0
20260506003006 83 100 2.6 2.6 0.00 0.00 0.00 90 1009.7
20260506002503 82 69 0.0 0.9 0.00 0.00 0.00 92 1009.8
20260506001958 81 52 0.9 0.9 0.00 0.00 0.00 94 1009.7
20260506001455 81 72 2.6 2.6 0.00 0.00 0.00 94 1009.7
20260506000952 81 99 1.7 1.7 0.00 0.00 0.00 95 1009.8
20260506000450 81 99 0.9 0.9 0.00 0.00 0.00 95 1009.6
20260505235946 81 64 1.7 1.7 0.00 0.00 0.00 96 1009.6
20260505235445 80 60 1.7 2.6 0.00 0.00 0.00 98 1009.6
20260505234941 79 78 1.7 2.6 0.00 0.00 0.00 99 1009.6
20260505234439 78 77 0.0 0.9 0.00 0.00 0.00 99 1009.5
20260505233935 77 86 0.9 0.9 0.00 0.00 0.00 99 1009.3
20260505233433 77 78 0.9 0.9 0.00 0.00 0.00 99 1009.6
20260505232930 77 92 0.0 0.9 0.00 0.00 0.00 99 1009.3
20260505232428 77 89 0.0 0.0 0.00 0.00 0.00 99 1009.2
20260505231925 77 87 0.0 0.0 0.00 0.00 0.00 99 1009.2
20260505231422 76 95 0.0 0.0 0.00 0.00 0.00 99 1009.1
20260505230920 76 96 0.0 0.0 0.00 0.00 0.00 99 1009.2
20260505230418 76 96 0.0 0.0 0.00 0.00 0.00 99 1009.1
20260505225914 76 93 0.0 0.0 0.00 0.00 0.00 99 1009.1
20260505225411 76 92 0.0 0.0 0.00 0.00 0.00 99 1008.9
20260505224911 76 85 0.0 0.0 0.00 0.00 0.00 99 1008.9
20260505224409 76 91 0.0 0.0 0.00 0.00 0.00 99 1008.8
20260505223906 76 89 0.0 0.0 0.00 0.00 0.00 99 1008.7
20260505223403 76 88 0.0 0.0 0.00 0.00 0.00 99 1008.6
20260505222859 76 89 0.0 0.0 0.00 0.00 0.00 99 1008.8
20260505222355 76 79 0.0 0.0 0.00 0.00 0.00 99 1008.6
20260505221852 76 86 0.0 0.9 0.00 0.00 0.00 99 1008.5
20260505221349 76 72 1.7 2.6 0.00 0.00 0.00 99 1008.3
20260505220846 76 59 0.9 0.9 0.00 0.00 0.00 99 1008.5
20260505220343 76 96 0.9 0.9 0.00 0.00 0.00 99 1008.6
20260505215841 76 79 0.9 0.9 0.00 0.00 0.00 99 1008.4
20260505215339 76 98 0.9 1.7 0.00 0.00 0.00 99 1008.3
20260505214837 76 94 0.0 0.9 0.00 0.00 0.00 99 1008.4
20260505214334 76 87 0.0 0.9 0.00 0.00 0.00 99 1008.2
20260505213831 76 97 0.0 0.0 0.00 0.00 0.00 99 1008.4
20260505213329 76 82 0.9 0.9 0.00 0.00 0.00 99 1008.5
20260505212824 76 64 1.7 1.7 0.00 0.00 0.00 99 1008.2
20260505212322 76 91 0.0 0.0 0.00 0.00 0.00 99 1008.2
20260505211818 76 72 0.9 0.9 0.00 0.00 0.00 99 1008.2
20260505211316 76 77 0.0 0.9 0.00 0.00 0.00 99 1008.4
20260505210812 76 59 0.9 0.9 0.00 0.00 0.00 99 1008.5
20260505210309 76 75 0.0 0.0 0.00 0.00 0.00 99 1008.1
20260505205806 76 76 0.9 0.9 0.00 0.00 0.00 99 1008.3
20260505205305 76 103 0.0 0.9 0.00 0.00 0.00 99 1008.3
20260505204800 76 98 1.7 1.7 0.00 0.00 0.00 99 1008.1
20260505204258 75 95 0.0 0.0 0.00 0.00 0.00 99 1008.0
20260505203755 75 100 0.9 1.7 0.00 0.00 0.00 99 1008.2
20260505203252 75 66 0.0 0.9 0.00 0.00 0.00 99 1008.3
20260505202749 75 95 0.0 0.0 0.00 0.00 0.00 99 1008.1
20260505202245 75 103 0.0 0.0 0.00 0.00 0.00 99 1008.1
20260505201742 75 98 0.0 0.0 0.00 0.00 0.00 99 1008.2
20260505201239 75 105 0.0 0.0 0.00 0.00 0.00 99 1008.1
20260505200738 75 104 0.0 0.0 0.00 0.00 0.00 99 1008.2
20260505200234 75 102 0.0 0.0 0.00 0.00 0.00 99 1008.2
20260505195729 75 102 0.0 0.0 0.00 0.00 0.00 99 1008.1
20260505195227 75 107 0.0 0.0 0.00 0.00 0.00 99 1007.8
20260505194724 75 101 0.0 0.0 0.00 0.00 0.00 99 1008.3
20260505194220 75 111 0.0 0.0 0.00 0.00 0.00 99 1008.0
20260505193716 75 114 0.0 0.0 0.00 0.00 0.00 99 1008.1
20260505193213 75 110 0.0 0.0 0.00 0.00 0.00 99 1007.8
20260505192712 75 111 0.0 0.0 0.00 0.00 0.00 99 1008.0
20260505192209 75 86 0.0 0.0 0.00 0.00 0.00 99 1008.1
20260505191708 75 91 0.0 0.0 0.00 0.00 0.00 99 1008.0
20260505191205 75 71 0.9 0.9 0.00 0.00 0.00 99 1007.8
20260505190701 75 82 0.0 0.0 0.00 0.00 0.00 99 1008.0
20260505190155 75 82 0.0 0.0 0.00 0.00 0.00 99 1008.0
20260505185653 75 85 0.0 0.0 0.00 0.00 0.00 99 1008.1
20260505185149 75 96 0.0 0.0 0.00 0.00 0.00 99 1008.1
20260505184645 75 88 0.0 0.0 0.00 0.00 0.00 99 1008.1
20260505184143 75 56 0.9 0.9 0.00 0.00 0.00 99 1008.4
20260505183639 75 82 0.0 0.0 0.00 0.00 0.00 99 1008.4
20260505183137 75 78 0.0 0.0 0.00 0.00 0.00 99 1008.4
20260505182633 75 87 0.0 0.0 0.00 0.00 0.00 99 1008.5
20260505182130 75 82 0.0 0.9 0.00 0.00 0.00 99 1008.2
20260505181627 75 78 0.9 0.9 0.00 0.00 0.00 99 1008.4
20260505181124 75 85 0.0 0.0 0.00 0.00 0.00 99 1008.4
20260505180620 75 75 0.9 0.9 0.00 0.00 0.00 99 1008.5
20260505180118 75 80 0.0 0.9 0.00 0.00 0.00 99 1008.6
20260505175613 75 105 0.0 0.0 0.00 0.00 0.00 99 1008.5
20260505175110 76 90 0.0 0.0 0.00 0.00 0.00 99 1008.7
20260505174607 76 88 0.0 0.0 0.00 0.00 0.00 99 1008.9
20260505174103 76 106 0.0 0.0 0.00 0.00 0.00 99 1008.9
20260505173600 76 103 0.0 0.0 0.00 0.00 0.00 99 1009.0
20260505173056 76 89 0.0 0.0 0.00 0.00 0.00 99 1009.1
20260505172553 76 90 0.0 0.0 0.00 0.00 0.00 99 1008.9
20260505172050 76 100 0.0 0.0 0.00 0.00 0.00 99 1009.1
20260505171545 76 97 0.0 0.0 0.00 0.00 0.00 99 1009.2
20260505171042 77 97 0.0 0.0 0.00 0.00 0.00 99 1009.4
20260505170539 77 94 0.0 0.0 0.00 0.00 0.00 99 1009.6
20260505170035 77 66 0.9 0.9 0.00 0.00 0.00 99 1009.6
20260505165530 77 339 1.7 2.6 0.00 0.24 0.24 99 1009.5
20260505165026 77 62 2.6 2.6 0.00 0.24 0.24 99 1009.7
20260505164522 77 75 1.7 1.7 0.00 0.24 0.24 99 1009.6
20260505164020 77 68 1.7 1.7 0.00 0.24 0.24 99 1009.9
20260505163519 77 77 0.9 0.9 0.00 0.24 0.24 99 1009.6
20260505163015 77 104 0.9 1.7 0.00 0.24 0.24 99 1009.5
20260505162508 77 109 0.9 0.9 0.00 0.24 0.24 99 1009.7
20260505162005 77 49 0.9 0.9 0.00 0.24 0.24 99 1010.0
20260505161456 77 95 0.0 0.0 0.00 0.24 0.24 99 1009.9
20260505160954 77 102 0.0 0.9 0.00 0.24 0.24 99 1009.8
20260505160452 77 80 0.9 0.9 0.00 0.24 0.24 99 1009.8
20260505152929 77 74 0.9 0.9 0.00 0.24 0.24 99 1010.3
20260505152426 76 78 0.0 0.9 0.00 0.24 0.24 99 1010.0
20260505151926 77 52 1.7 1.7 0.07 0.24 0.24 99 1010.2
20260505151422 77 85 0.9 0.9 0.07 0.24 0.24 99 1010.2
20260505150919 77 92 0.0 0.0 0.00 0.23 0.23 99 1010.1
20260505150416 77 115 0.9 0.9 0.00 0.23 0.23 99 1010.2
20260505140335 76 55 1.7 1.7 0.00 0.23 0.23 99 1010.5
20260505130258 75 125 0.9 0.9 0.05 0.23 0.23 99 1009.6
20260505124748 76 132 0.9 0.9 0.00 0.22 0.22 99 1009.0
20260505124245 76 113 0.9 0.9 0.00 0.22 0.22 99 1008.9
20260505123741 77 132 0.9 1.7 0.00 0.22 0.22 99 1008.8
20260505123238 77 136 2.6 2.6 0.00 0.22 0.22 99 1008.7
20260505122734 77 92 0.0 0.9 0.00 0.22 0.22 99 1008.4
20260505122232 77 109 0.9 0.9 0.00 0.22 0.22 99 1008.4
20260505121728 78 103 0.0 0.0 0.00 0.22 0.22 99 1008.0
20260505121225 77 113 2.6 2.6 0.00 0.22 0.22 99 1007.9
20260505120721 77 123 1.7 1.7 0.00 0.22 0.22 99 1007.9
20260505120217 77 93 0.9 1.7 0.00 0.22 0.22 99 1007.9
20260505115716 78 116 1.7 1.7 0.00 0.22 0.22 99 1008.0
20260505115214 78 105 0.0 0.0 0.07 0.22 0.22 99 1007.9
20260505114711 77 80 0.0 0.0 0.19 0.22 0.22 99 1008.0
20260505114207 77 24 1.7 1.7 0.35 0.21 0.21 99 1008.1
20260505113703 78 51 0.9 1.7 0.24 0.19 0.19 99 1008.4
20260505113200 78 50 1.7 2.6 0.05 0.16 0.16 97 1008.5
20260505112656 78 94 0.0 0.0 0.00 0.15 0.15 99 1008.4
20260505112155 78 106 1.7 1.7 0.00 0.15 0.15 97 1008.4
20260505111654 78 105 1.7 2.6 0.00 0.15 0.15 96 1008.3
20260505111150 78 107 0.9 0.9 0.00 0.15 0.15 97 1008.0
20260505110646 78 133 0.9 1.7 0.00 0.15 0.15 97 1008.0
20260505110144 78 148 3.5 3.5 0.00 0.15 0.15 96 1007.7
20260505102120 82 107 0.9 0.9 0.00 0.15 0.15 98 1006.5
20260505101618 82 124 1.7 1.7 0.07 0.15 0.15 98 1006.5
20260505101114 82 97 0.0 0.0 0.31 0.15 0.15 97 1006.2
20260505100610 82 110 0.9 0.9 0.83 0.14 0.14 90 1006.3
20260505100107 84 90 1.7 2.6 0.59 0.10 0.10 91 1006.7
20260505095603 86 95 0.0 0.9 0.05 0.01 0.01 86 1006.5
20260505095100 88 320 3.5 3.5 0.00 0.00 0.00 81 1006.2
20260505094556 88 103 0.0 0.9 0.00 0.00 0.00 76 1006.3
20260505094053 88 336 3.5 5.2 0.00 0.00 0.00 80 1006.3
20260505093549 90 36 1.7 2.6 0.00 0.00 0.00 79 1006.0
20260505093047 89 99 0.9 1.7 0.00 0.00 0.00 78 1006.2
20260505092544 90 262 3.5 5.2 0.00 0.00 0.00 77 1005.8
20260505092042 89 265 3.5 7.0 0.00 0.00 0.00 78 1005.9
20260505091539 89 10 1.7 1.7 0.00 0.00 0.00 78 1006.0
20260505091037 90 121 0.9 0.9 0.00 0.00 0.00 79 1005.9
20260505090535 91 3 1.7 2.6 0.00 0.00 0.00 76 1005.9
20260505090033 91 333 2.6 6.1 0.00 0.00 0.00 75 1006.3
20260505085530 90 130 0.9 1.7 0.00 0.00 0.00 75 1006.0
20260505085028 90 74 1.7 2.6 0.00 0.00 0.00 75 1006.1
20260505084526 91 146 2.6 3.5 0.00 0.00 0.00 74 1006.3
20260505084024 92 97 0.9 1.7 0.00 0.00 0.00 72 1006.1
20260505083521 93 209 3.5 5.2 0.00 0.00 0.00 71 1006.1
20260505083017 94 51 2.6 2.6 0.00 0.00 0.00 68 1005.7
20260505082513 94 244 1.7 1.7 0.00 0.00 0.00 67 1005.8
20260505082010 96 76 1.7 1.7 0.00 0.00 0.00 66 1005.8
20260505081506 95 316 1.7 1.7 0.00 0.00 0.00 66 1005.7
20260505081003 95 235 2.6 2.6 0.00 0.00 0.00 65 1006.0
20260505080500 95 166 1.7 1.7 0.00 0.00 0.00 66 1006.3
20260505075955 95 208 1.7 2.6 0.00 0.00 0.00 65 1006.4
20260505075452 95 34 1.7 5.2 0.00 0.00 0.00 67 1006.4
20260505074949 94 283 0.9 1.7 0.00 0.00 0.00 67 1006.6
20260505074447 95 240 0.9 0.9 0.00 0.00 0.00 62 1006.5
20260505073944 96 21 1.7 1.7 0.00 0.00 0.00 65 1006.5
20260505073441 93 102 0.9 1.7 0.00 0.00 0.00 67 1006.6
20260505072938 94 338 3.5 3.5 0.00 0.00 0.00 69 1007.1
20260505072434 94 126 1.7 2.6 0.00 0.00 0.00 71 1006.7
20260505071931 94 178 3.5 3.5 0.00 0.00 0.00 65 1006.6
20260505071427 92 280 2.6 2.6 0.00 0.00 0.00 69 1007.2
20260505070925 93 216 0.9 1.7 0.00 0.00 0.00 69 1006.8
20260505070421 93 333 1.7 2.6 0.00 0.00 0.00 66 1007.0
20260505065917 94 202 2.6 3.5 0.00 0.00 0.00 59 1007.2
20260505065414 96 152 1.7 1.7 0.00 0.00 0.00 58 1007.3
20260505064910 96 119 1.7 1.7 0.00 0.00 0.00 57 1007.2
20260505064408 96 48 0.0 0.9 0.00 0.00 0.00 58 1007.6
20260505063906 96 161 0.9 1.7 0.00 0.00 0.00 54 1007.5
20260505063402 96 98 0.0 0.9 0.00 0.00 0.00 53 1007.6
20260505062859 96 162 3.5 3.5 0.00 0.00 0.00 52 1007.9
20260505062356 96 117 1.7 1.7 0.00 0.00 0.00 52 1008.0
20260505061852 96 282 2.6 2.6 0.00 0.00 0.00 55 1008.0
20260505061351 96 86 0.9 0.9 0.00 0.00 0.00 62 1008.3
20260505060848 96 352 2.6 3.5 0.00 0.00 0.00 62 1008.3
20260505060345 95 104 0.9 0.9 0.00 0.00 0.00 58 1008.5
20260505055841 94 104 0.9 0.9 0.00 0.00 0.00 59 1008.3
20260505055337 95 106 1.7 1.7 0.00 0.00 0.00 55 1008.7
20260505054834 95 121 0.9 1.7 0.00 0.00 0.00 54 1008.7
20260505054331 96 79 1.7 1.7 0.00 0.00 0.00 59 1009.0
20260505053830 95 106 0.0 0.0 0.00 0.00 0.00 56 1009.1
20260505053326 96 32 4.3 5.2 0.00 0.00 0.00 59 1008.9
20260505052823 95 167 0.9 0.9 0.00 0.00 0.00 59 1009.0
20260505052320 94 110 0.9 0.9 0.00 0.00 0.00 62 1009.1
20260505051817 95 119 3.5 3.5 0.00 0.00 0.00 59 1009.2
20260505051314 94 101 0.0 0.9 0.00 0.00 0.00 66 1009.3
20260505050812 92 91 0.0 0.9 0.00 0.00 0.00 67 1009.2
20260505050311 93 73 0.9 0.9 0.00 0.00 0.00 68 1009.3
20260505041740 92 50 2.6 2.6 0.00 0.00 0.00 76 1010.0
20260505041237 91 94 0.0 0.0 0.00 0.00 0.00 75 1009.9
20260505040735 91 11 1.7 1.7 0.00 0.00 0.00 74 1010.1
20260505040232 89 144 2.6 3.5 0.00 0.00 0.00 79 1010.2
20260505035729 89 47 2.6 2.6 0.00 0.00 0.00 77 1010.1
20260505035225 91 47 3.5 5.2 0.00 0.00 0.00 75 1010.2
20260505034722 90 71 0.9 0.9 0.00 0.00 0.00 75 1010.5
20260505034219 88 93 0.0 0.0 0.00 0.00 0.00 77 1010.4
20260505033715 87 338 3.5 3.5 0.00 0.00 0.00 81 1010.6
20260505033213 88 44 1.7 2.6 0.00 0.00 0.00 83 1010.4
20260505032711 88 124 1.7 2.6 0.00 0.00 0.00 81 1010.8
20260505032207 88 54 2.6 2.6 0.00 0.00 0.00 85 1010.7
20260505031704 88 82 1.7 1.7 0.00 0.00 0.00 84 1010.8
20260505031200 89 301 2.6 2.6 0.00 0.00 0.00 78 1010.7
20260505030657 88 32 1.7 2.6 0.00 0.00 0.00 78 1010.7
20260505030153 86 75 0.0 0.9 0.00 0.00 0.00 83 1010.7
20260505025649 86 331 1.7 2.6 0.00 0.00 0.00 85 1010.8
20260505025148 86 67 1.7 2.6 0.00 0.00 0.00 84 1010.7
20260505024645 86 285 1.7 1.7 0.00 0.00 0.00 83 1011.1
20260505024142 86 87 0.9 0.9 0.00 0.00 0.00 84 1010.6
20260505023640 86 350 2.6 2.6 0.00 0.00 0.00 82 1010.7
20260505023137 87 344 2.6 2.6 0.00 0.00 0.00 84 1010.9
20260505022634 88 137 1.7 1.7 0.00 0.00 0.00 82 1010.9
20260505022131 86 86 0.0 0.9 0.00 0.00 0.00 82 1011.0
20260505021628 87 88 0.0 0.0 0.00 0.00 0.00 82 1011.0
20260505021125 86 93 0.9 0.9 0.00 0.00 0.00 83 1010.9
20260505020620 85 333 2.6 2.6 0.00 0.00 0.00 84 1010.9
20260505020117 84 270 1.7 2.6 0.00 0.00 0.00 83 1010.6
20260505015614 84 353 2.6 2.6 0.00 0.00 0.00 87 1010.7
20260505015110 84 354 2.6 3.5 0.00 0.00 0.00 87 1010.8
20260505014607 84 293 1.7 1.7 0.00 0.00 0.00 87 1010.9
20260505014104 84 277 2.6 2.6 0.00 0.00 0.00 87 1010.7
20260505013601 84 351 2.6 3.5 0.00 0.00 0.00 86 1010.8
20260505013059 84 84 1.7 1.7 0.00 0.00 0.00 88 1010.9
20260505012556 83 34 4.3 5.2 0.00 0.00 0.00 86 1010.9